Idabel, OK

2:55 PM CDT on March 30, 2017 (GMT -0500)
Idabel

Weather History for K4O4 - May, 2014

Change the Weather History Date:

Friday, May 9, 2014

  Actual Average (KPRX) Record (KPRX)
Temperature  
Mean Temperature 74 °F -  
Max Temperature 86 °F 77 °F 89 °F (2011)
Min Temperature 62 °F 58 °F 55 °F (2005)
Cooling Degree Days 9    
Growing Degree Days 24 (Base 50)    
Moisture  
Dew Point 65 °F    
Average Humidity 81    
Maximum Humidity 100    
Minimum Humidity 48    
Precipitation  
Precipitation 0.00 in - - ()
Sea Level Pressure  
Sea Level Pressure 29.88 in    
Wind  
Wind Speed 6 mph (SSE)    
Max Wind Speed 20 mph    
Max Gust Speed 26 mph    
Visibility 7 miles    
Events      
Averages and records for this station are not official NWS values.
T = Trace of Precipitation, MM = Missing Value Source: NWS Daily Summary

Daily Weather History Graph

Daily Weather History Graph

Search for Another Location

Airport or City:

Trip Planner

Search our weather history database for the weather conditions in past years. The results will help you decide how hot, cold, wet, or windy it might be!

Date:

Astronomy

May. 09, 2014 Rise Set
Actual Time 6:22 AM CDT 8:09 PM CDT
Civil Twilight 5:55 AM CDT 8:36 PM CDT
Nautical Twilight 5:22 AM CDT 9:09 PM CDT
Astronomical Twilight 4:48 AM CDT 9:44 PM CDT
Moon 3:21 PM CDT (5/9) 3:10 AM CDT (5/9)
Length of Visible Light 14h 40m
Length of Day
13h 46m
Waxing Gibbous, 74% of the Moon is Illuminated
May 9
Waxing Gibbous
May 14
Full
May 21
Last Quarter
May 28
New
Jun 5
First Quarter

Hourly Weather History & Observations

Time (CDT) Temp. Heat Index Dew Point Humidity Pressure Visibility Wind Dir Wind Speed Gust Speed Precip Events Conditions
12:21 AM 62.6 °F - 60.8 °F 94% 29.89 in 10.0 mi SSE 4.6 mph - N/A   Clear
12:41 AM 62.6 °F - 60.8 °F 94% 29.89 in 10.0 mi SSE 4.6 mph - N/A   Clear
1:01 AM 62.6 °F - 60.8 °F 94% 29.90 in 10.0 mi SSE 6.9 mph - N/A   Scattered Clouds
1:21 AM 62.6 °F - 60.8 °F 94% 29.89 in 10.0 mi SSE 5.8 mph - N/A   Overcast
1:41 AM 62.6 °F - 60.8 °F 94% 29.89 in 10.0 mi South 6.9 mph - N/A   Overcast
2:01 AM 62.6 °F - 60.8 °F 94% 29.88 in 10.0 mi SE 4.6 mph - N/A   Overcast
2:21 AM 62.6 °F - 60.8 °F 94% 29.88 in 10.0 mi SE 4.6 mph - N/A   Overcast
2:41 AM 62.6 °F - 60.8 °F 94% 29.88 in 10.0 mi SE 4.6 mph - N/A   Overcast
3:01 AM 62.6 °F - 60.8 °F 94% 29.88 in 7.0 mi SE 3.5 mph - N/A   Overcast
3:23 AM 62.6 °F - 60.8 °F 94% 29.87 in 7.0 mi Calm Calm - N/A   Overcast
3:41 AM 62.6 °F - 60.8 °F 94% 29.87 in 7.0 mi East 3.5 mph - N/A   Overcast
4:21 AM 62.6 °F - 60.8 °F 94% 29.86 in 7.0 mi ESE 6.9 mph - N/A   Overcast
4:41 AM 62.6 °F - 60.8 °F 94% 29.87 in 7.0 mi East 5.8 mph - N/A   Overcast
5:01 AM 62.6 °F - 60.8 °F 94% 29.87 in 7.0 mi ESE 3.5 mph - N/A   Overcast
5:21 AM 62.6 °F - 60.8 °F 94% 29.87 in 2.5 mi SE 6.9 mph - N/A   Overcast
5:41 AM 62.6 °F - 60.8 °F 94% 29.87 in 1.5 mi SE 4.6 mph - N/A   Overcast
6:01 AM 62.6 °F - 62.6 °F 100% 29.87 in 1.5 mi East 5.8 mph - N/A   Overcast
6:21 AM 62.6 °F - 60.8 °F 94% 29.88 in 1.5 mi ESE 3.5 mph - N/A   Overcast
6:41 AM 62.6 °F - 62.6 °F 100% 29.89 in 1.5 mi East 4.6 mph - N/A   Overcast
7:01 AM 62.6 °F - 62.6 °F 100% 29.89 in 1.8 mi East 5.8 mph - N/A   Overcast
7:21 AM 62.6 °F - 62.6 °F 100% 29.91 in 2.5 mi East 5.8 mph - N/A   Overcast
7:41 AM 62.6 °F - 62.6 °F 100% 29.92 in 3.0 mi ESE 5.8 mph - N/A   Overcast
8:01 AM 64.4 °F - 62.6 °F 94% 29.93 in 4.0 mi ESE 4.6 mph - N/A   Overcast
8:21 AM 64.4 °F - 62.6 °F 94% 29.93 in 5.0 mi ESE 3.5 mph - N/A   Overcast
8:41 AM 64.4 °F - 62.6 °F 94% 29.92 in 3.0 mi ESE 8.1 mph - N/A   Overcast
9:01 AM 64.4 °F - 62.6 °F 94% 29.92 in 1.8 mi ESE 5.8 mph - N/A   Overcast
9:21 AM 64.4 °F - 64.4 °F 100% 29.92 in 3.0 mi ESE 6.9 mph - N/A   Overcast
9:41 AM 66.2 °F - 64.4 °F 94% 29.91 in 4.0 mi ESE 4.6 mph - N/A   Overcast
10:02 AM 68.0 °F - 66.2 °F 94% 29.91 in 4.0 mi SSE 5.8 mph - N/A   Overcast
10:21 AM 68.0 °F - 66.2 °F 94% 29.91 in 4.0 mi SSE 8.1 mph - N/A   Overcast
10:41 AM 69.8 °F - 68.0 °F 94% 29.91 in 4.0 mi SSE 6.9 mph - N/A   Overcast
11:01 AM 71.6 °F - 69.8 °F 94% 29.90 in 5.0 mi South 8.1 mph - N/A   Overcast
11:21 AM 71.6 °F - 69.8 °F 94% 29.90 in 5.0 mi South 5.8 mph - N/A   Overcast
11:41 AM 73.4 °F - 71.6 °F 94% 29.89 in 4.0 mi South 3.5 mph - N/A   Overcast
12:02 PM 73.4 °F - 71.6 °F 94% 29.90 in 5.0 mi Calm Calm - N/A   Overcast
12:22 PM 77.0 °F - 71.6 °F 83% 29.91 in 5.0 mi South 6.9 mph - N/A   Overcast
12:41 PM 78.8 °F - 71.6 °F 78% 29.91 in 7.0 mi SSW 5.8 mph - N/A   Mostly Cloudy
1:01 PM 80.6 °F 83.9 °F 69.8 °F 70% 29.90 in 7.0 mi Calm Calm - N/A   Mostly Cloudy
1:21 PM 82.4 °F 86.3 °F 69.8 °F 66% 29.89 in 7.0 mi SSW 3.5 mph - N/A   Scattered Clouds
1:41 PM 82.4 °F 86.3 °F 69.8 °F 66% 29.89 in 7.0 mi SW 5.8 mph - N/A   Scattered Clouds
2:01 PM 82.4 °F 84.6 °F 66.2 °F 58% 29.89 in 10.0 mi WSW 6.9 mph - N/A   Scattered Clouds
2:21 PM 84.2 °F 86.6 °F 66.2 °F 55% 29.88 in 10.0 mi West 5.8 mph - N/A   Scattered Clouds
2:41 PM 84.2 °F 85.6 °F 64.4 °F 51% 29.87 in 10.0 mi WSW 5.8 mph - N/A   Clear
3:01 PM 84.2 °F 86.6 °F 66.2 °F 55% 29.86 in 10.0 mi SW 6.9 mph - N/A   Scattered Clouds
3:21 PM 84.2 °F 86.6 °F 66.2 °F 55% 29.85 in 10.0 mi SSW 5.8 mph - N/A   Scattered Clouds
3:41 PM 86.0 °F 88.2 °F 66.2 °F 51% 29.84 in 10.0 mi SW 5.8 mph - N/A   Scattered Clouds
4:01 PM 86.0 °F 87.3 °F 64.4 °F 48% 29.83 in 10.0 mi WSW 3.5 mph - N/A   Clear
4:21 PM 86.0 °F 87.3 °F 64.4 °F 48% 29.82 in 10.0 mi SW 6.9 mph - N/A   Clear
4:41 PM 84.2 °F 85.6 °F 64.4 °F 51% 29.82 in 10.0 mi WSW 3.5 mph - N/A   Clear
5:01 PM 84.2 °F 85.6 °F 64.4 °F 51% 29.82 in 10.0 mi Calm Calm - N/A   Clear
5:21 PM 84.2 °F 85.6 °F 64.4 °F 51% 29.82 in 10.0 mi SW 4.6 mph - N/A   Clear
5:41 PM 84.2 °F 85.6 °F 64.4 °F 51% 29.82 in 10.0 mi SSW 4.6 mph - N/A   Clear
6:01 PM 84.2 °F 86.6 °F 66.2 °F 55% 29.82 in 10.0 mi SW 5.8 mph - N/A   Clear
6:21 PM 82.4 °F 84.6 °F 66.2 °F 58% 29.81 in 10.0 mi Calm Calm - N/A   Clear
7:01 PM 80.6 °F 82.7 °F 66.2 °F 61% 29.81 in 10.0 mi Calm Calm - N/A   Clear
7:21 PM 78.8 °F - 68.0 °F 69% 29.83 in 10.0 mi East 8.1 mph - N/A   Clear
7:41 PM 77.0 °F - 69.8 °F 78% 29.83 in 7.0 mi East 8.1 mph - N/A   Clear
8:01 PM 75.2 °F - 71.6 °F 89% 29.83 in 7.0 mi East 10.4 mph - N/A   Scattered Clouds
8:21 PM 75.2 °F - 69.8 °F 83% 29.84 in 7.0 mi SE 17.3 mph 23.0 mph N/A   Scattered Clouds
8:41 PM 73.4 °F - 64.4 °F 73% 29.85 in 10.0 mi SSE 13.8 mph 21.9 mph N/A   Scattered Clouds
9:01 PM 71.6 °F - 64.4 °F 78% 29.86 in 10.0 mi SSE 12.7 mph 17.3 mph N/A   Clear
9:21 PM 69.8 °F - 64.4 °F 83% 29.87 in 10.0 mi SSE 9.2 mph - N/A   Clear
9:41 PM 69.8 °F - 64.4 °F 83% 29.87 in 10.0 mi South 10.4 mph - N/A   Clear
10:01 PM 69.8 °F - 62.6 °F 78% 29.88 in 10.0 mi SSE 12.7 mph 18.4 mph N/A   Clear
10:21 PM 69.8 °F - 62.6 °F 78% 29.90 in 10.0 mi SSE 12.7 mph 18.4 mph N/A   Clear
10:41 PM 69.8 °F - 62.6 °F 78% 29.89 in 10.0 mi SSE 11.5 mph - N/A   Clear
11:01 PM 68.0 °F - 62.6 °F 83% 29.90 in 10.0 mi South 13.8 mph 23.0 mph N/A   Scattered Clouds
11:21 PM 66.2 °F - 62.6 °F 88% 29.91 in 10.0 mi South 11.5 mph - N/A   Scattered Clouds
11:41 PM 66.2 °F - 62.6 °F 88% 29.92 in 1.2 mi South 19.6 mph 26.5 mph N/A   Overcast